Powrót do katalogu

STARLINK-36148

AktywnyŁącznośćVLEO
NORAD 67005·PAYLOAD·🇺🇸 United States

Wystrzelony Dec 10, 2025 z Vandenberg Space Force Base

Loading…

Następne Przeloty (najbliższe 24 godziny)

TLE

ŚwieżeSource: CelesTrak SupGP

Epoka: Sep 14, 2026, 22:34 UTC

1 67005C 25293C   26257.94076389 -.00018682  00000+0 -15653-2 0  2572
2 67005  70.0022 337.3889 0003522 266.2594  82.8987 14.98347010    18

Śledź STARLINK-36148 w czasie rzeczywistym z AllMySat

Download on the App Store